When you browse on this site, cookies collect data to enhance your experience and personalize the content and advertising you see.
Visit our Privacy Policy to learn more. By continuing to use the site, you agree to this use of cookies and data.
  • In United Kingdom
  • List of Countries
  • For 7 days
  • Water Temperature
  • Weather Map
  • Weather Widgets
  • user-avatar
    Login

    Hourly Weather Bumbesti-Jiu

    Today, 20 September, Friday

    Time Temperature Precipitation Wind Pressure Humidity
    00:00 +9°C° 0 mm 3 mps 734 mmHg 58%
    01:00 +8°C° 0 mm 2 mps 735 mmHg 61%
    02:00 +8°C° 0 mm 2 mps 735 mmHg 64%
    03:00 +7°C° 0 mm 2 mps 735 mmHg 65%
    04:00 +7°C° 0 mm 2 mps 735 mmHg 67%
    05:00 +7°C° 0 mm 2 mps 735 mmHg 69%
    06:00 +8°C° 0 mm 2 mps 735 mmHg 62%
    07:00 +9°C° 0 mm 2 mps 735 mmHg 56%
    08:00 +12°C° 0 mm 2 mps 736 mmHg 49%
    09:00 +14°C° 0 mm 2 mps 736 mmHg 43%
    10:00 +16°C° 0 mm 2 mps 736 mmHg 36%
    11:00 +18°C° 0 mm 2 mps 736 mmHg 29%
    12:00 +18°C° 0 mm 3 mps 736 mmHg 28%
    13:00 +19°C° 0 mm 3 mps 736 mmHg 26%
    14:00 +19°C° 0 mm 4 mps 735 mmHg 25%
    15:00 +19°C° 0 mm 4 mps 735 mmHg 26%
    16:00 +18°C° 0 mm 4 mps 735 mmHg 27%
    17:00 +17°C° 0 mm 4 mps 735 mmHg 28%
    18:00 +14°C° 0 mm 3 mps 735 mmHg 34%
    19:00 +12°C° 0 mm 3 mps 736 mmHg 40%
    20:00 +10°C° 0 mm 2 mps 736 mmHg 45%
    21:00 +9°C° 0 mm 2 mps 736 mmHg 47%
    22:00 +8°C° 0 mm 2 mps 736 mmHg 50%
    23:00 +7°C° 0 mm 2 mps 736 mmHg 52%

    Tomorrow, 21 September, Saturday

    Time Temperature Precipitation Wind Pressure Humidity
    00:00 +7°C° 0 mm 2 mps 737 mmHg 53%
    01:00 +7°C° 0 mm 2 mps 737 mmHg 53%
    02:00 +7°C° 0 mm 2 mps 737 mmHg 54%
    03:00 +7°C° 0 mm 1 mps 737 mmHg 54%
    04:00 +7°C° 0 mm 1 mps 737 mmHg 54%
    05:00 +7°C° 0 mm 1 mps 737 mmHg 55%
    06:00 +9°C° 0 mm 1 mps 737 mmHg 50%
    07:00 +9°C° 0 mm 0 mps 738 mmHg 45%
    08:00 +11°C° 0 mm 0 mps 738 mmHg 40%
    09:00 +14°C° 0 mm 1 mps 738 mmHg 37%
    10:00 +16°C° 0 mm 1 mps 738 mmHg 33%
    11:00 +19°C° 0 mm 1 mps 738 mmHg 30%
    12:00 +19°C° 0 mm 1 mps 738 mmHg 29%
    13:00 +19°C° 0 mm 2 mps 737 mmHg 28%
    14:00 +20°C° 0 mm 2 mps 737 mmHg 27%
    15:00 +20°C° 0 mm 2 mps 737 mmHg 29%
    16:00 +20°C° 0 mm 1 mps 737 mmHg 30%
    17:00 +20°C° 0 mm 1 mps 736 mmHg 32%
    18:00 +16°C° 0 mm 1 mps 736 mmHg 37%
    19:00 +14°C° 0 mm 1 mps 736 mmHg 43%
    20:00 +12°C° 0 mm 1 mps 736 mmHg 49%
    21:00 +11°C° 0 mm 1 mps 736 mmHg 50%
    22:00 +11°C° 0 mm 1 mps 736 mmHg 51%
    23:00 +10°C° 0 mm 1 mps 736 mmHg 51%

    Day after tomorrow, 22 September, Sunday

    Time Temperature Precipitation Wind Pressure Humidity
    00:00 +10°C° 0 mm 1 mps 736 mmHg 51%
    01:00 +10°C° 0 mm 1 mps 736 mmHg 51%
    02:00 +10°C° 0 mm 1 mps 736 mmHg 51%
    03:00 +10°C° 0 mm 1 mps 735 mmHg 51%
    04:00 +9°C° 0 mm 1 mps 735 mmHg 51%
    05:00 +9°C° 0 mm 1 mps 735 mmHg 51%
    06:00 +10°C° 0 mm 0 mps 735 mmHg 48%
    07:00 +12°C° 0 mm 0 mps 735 mmHg 44%
    08:00 +13°C° 0 mm 0 mps 735 mmHg 41%
    09:00 +16°C° 0 mm 1 mps 735 mmHg 36%
    10:00 +20°C° 0 mm 1 mps 735 mmHg 31%
    11:00 +22°C° 0 mm 1 mps 735 mmHg 27%
    12:00 +23°C° 0 mm 1 mps 735 mmHg 26%
    13:00 +24°C° 0 mm 1 mps 734 mmHg 25%
    14:00 +25°C° 0 mm 1 mps 734 mmHg 24%
    15:00 +24°C° 0 mm 1 mps 733 mmHg 25%
    16:00 +23°C° 0 mm 1 mps 733 mmHg 27%
    17:00 +23°C° 0 mm 1 mps 732 mmHg 29%
    18:00 +20°C° 0 mm 1 mps 732 mmHg 33%
    19:00 +18°C° 0 mm 1 mps 732 mmHg 37%
    20:00 +14°C° 0 mm 1 mps 732 mmHg 42%
    21:00 +14°C° 0 mm 1 mps 732 mmHg 41%
    22:00 +13°C° 0 mm 1 mps 732 mmHg 41%
    23:00 +13°C° 0 mm 1 mps 732 mmHg 40%

    23 September, Monday

    Time Temperature Precipitation Wind Pressure Humidity
    00:00 +13°C° 0 mm 1 mps 731 mmHg 40%
    01:00 +13°C° 0 mm 1 mps 731 mmHg 40%
    02:00 +12°C° 0 mm 1 mps 731 mmHg 40%
    03:00 +12°C° 0 mm 1 mps 731 mmHg 40%
    04:00 +12°C° 0 mm 1 mps 731 mmHg 40%
    05:00 +12°C° 0 mm 1 mps 731 mmHg 40%
    06:00 +14°C° 0 mm 1 mps 730 mmHg 38%
    07:00 +15°C° 0 mm 1 mps 730 mmHg 36%
    08:00 +16°C° 0 mm 0 mps 730 mmHg 35%
    09:00 +20°C° 0 mm 1 mps 730 mmHg 32%
    10:00 +21°C° 0 mm 1 mps 730 mmHg 29%
    11:00 +23°C° 0 mm 2 mps 730 mmHg 26%
    12:00 +23°C° 0 mm 2 mps 729 mmHg 26%
    13:00 +24°C° 0 mm 2 mps 729 mmHg 26%
    14:00 +24°C° 0 mm 2 mps 728 mmHg 27%
    15:00 +23°C° 0 mm 1 mps 728 mmHg 30%
    16:00 +21°C° 0 mm 1 mps 728 mmHg 33%
    17:00 +20°C° 0 mm 1 mps 727 mmHg 37%
    18:00 +19°C° 0 mm 1 mps 727 mmHg 39%
    19:00 +19°C° 0 mm 1 mps 727 mmHg 42%
    20:00 +18°C° 0 mm 1 mps 727 mmHg 44%
    21:00 +18°C° 0 mm 1 mps 726 mmHg 46%
    22:00 +16°C° 0 mm 1 mps 726 mmHg 47%
    23:00 +15°C° 0 mm 1 mps 726 mmHg 48%

    24 September, Tuesday

    Time Temperature Precipitation Wind Pressure Humidity
    00:00 +16°C° 0 mm 1 mps 726 mmHg 51%
    01:00 +16°C° 0 mm 1 mps 726 mmHg 54%
    02:00 +16°C° 0 mm 1 mps 725 mmHg 57%
    03:00 +16°C° 0 mm 1 mps 725 mmHg 58%
    04:00 +18°C° 0 mm 1 mps 725 mmHg 58%
    05:00 +18°C° 0 mm 1 mps 725 mmHg 58%
    06:00 +16°C° 0.4 mm 1 mps 725 mmHg 66%
    07:00 +16°C° 0.4 mm 1 mps 725 mmHg 73%
    08:00 +15°C° 0.4 mm 1 mps 724 mmHg 81%
    09:00 +14°C° 0.6 mm 0 mps 725 mmHg 83%
    10:00 +15°C° 0.6 mm 0 mps 725 mmHg 84%
    11:00 +15°C° 0.6 mm 0 mps 725 mmHg 86%
    12:00 +15°C° 1.1 mm 0 mps 725 mmHg 88%
    13:00 +15°C° 1.1 mm 0 mps 725 mmHg 89%
    14:00 +15°C° 1.1 mm 0 mps 725 mmHg 91%
    15:00 +16°C° 1.3 mm 1 mps 725 mmHg 90%
    16:00 +18°C° 1.3 mm 1 mps 725 mmHg 90%
    17:00 +18°C° 1.3 mm 1 mps 726 mmHg 90%
    18:00 +16°C° 0.4 mm 1 mps 726 mmHg 91%
    19:00 +16°C° 0.4 mm 1 mps 726 mmHg 92%
    20:00 +15°C° 0.4 mm 1 mps 726 mmHg 94%
    21:00 +15°C° 0.1 mm 1 mps 726 mmHg 94%
    22:00 +15°C° 0.1 mm 1 mps 727 mmHg 94%
    23:00 +14°C° 0.1 mm 0 mps 727 mmHg 94%

    25 September, Wednesday

    Time Temperature Precipitation Wind Pressure Humidity
    00:00 +15°C° 0.1 mm 1 mps 727 mmHg 93%
    01:00 +15°C° 0.1 mm 1 mps 727 mmHg 93%
    02:00 +15°C° 0.1 mm 1 mps 727 mmHg 93%
    03:00 +15°C° 0.1 mm 1 mps 727 mmHg 93%
    04:00 +15°C° 0.1 mm 1 mps 727 mmHg 94%
    05:00 +14°C° 0.1 mm 0 mps 727 mmHg 94%
    06:00 +14°C° 0 mm 0 mps 727 mmHg 93%
    07:00 +15°C° 0 mm 0 mps 727 mmHg 91%
    08:00 +15°C° 0 mm 0 mps 728 mmHg 90%
    09:00 +19°C° 0 mm 1 mps 728 mmHg 84%
    10:00 +20°C° 0 mm 1 mps 728 mmHg 78%
    11:00 +22°C° 0 mm 1 mps 729 mmHg 72%
    12:00 +22°C° 0.2 mm 1 mps 728 mmHg 71%
    13:00 +22°C° 0.2 mm 1 mps 728 mmHg 70%
    14:00 +22°C° 0.2 mm 1 mps 728 mmHg 69%
    15:00 +22°C° 0.2 mm 1 mps 728 mmHg 70%
    16:00 +22°C° 0.2 mm 1 mps 728 mmHg 71%
    17:00 +20°C° 0.2 mm 0 mps 727 mmHg 73%
    18:00 +21°C° 0.1 mm 1 mps 728 mmHg 76%
    19:00 +20°C° 0.1 mm 1 mps 728 mmHg 79%
    20:00 +19°C° 0.1 mm 1 mps 728 mmHg 83%
    21:00 +18°C° 0 mm 1 mps 728 mmHg 84%
    22:00 +18°C° 0 mm 1 mps 728 mmHg 85%
    23:00 +18°C° 0 mm 1 mps 728 mmHg 86%
    Show more